Location: Newark
(48.4546°N, 21.8195°E)
Time: 07:41:56
(UTC+00:00)

ISS - Visible Passes

Search period start: 23 September 2020 00:00
Search period end: 03 October 2020 00:00
Orbit: 419 x 420 km, 51.6° (Epoch: 23 September)

Date Brightness Start Highest point End Pass type
(mag) Time Alt. Az. Time Alt. Az. Time Alt. Az.
23 Sep -3.7 17:21:01 10° WSW 17:24:24 81° NNW 17:27:27 12° ENE visible
23 Sep -2.0 18:58:10 10° WNW 19:00:25 33° NW 19:00:25 33° NW visible
24 Sep -3.0 18:10:40 10° W 18:13:58 48° N 18:14:50 37° NE visible
24 Sep -0.2 19:47:44 10° WNW 19:47:47 10° WNW 19:47:47 10° WNW visible
25 Sep -3.2 17:23:09 10° W 17:26:29 53° N 17:29:12 14° ENE visible
25 Sep -1.7 19:00:17 10° WNW 19:02:09 29° NW 19:02:09 29° NW visible
26 Sep -3.2 18:12:49 10° WNW 18:16:06 48° N 18:16:30 45° NNE visible
27 Sep -3.0 17:25:19 10° WNW 17:28:35 46° N 17:30:49 18° ENE visible
27 Sep -1.4 19:02:16 10° WNW 19:03:47 24° WNW 19:03:47 24° WNW visible
28 Sep -3.5 18:14:49 10° WNW 18:18:06 63° N 18:18:06 63° N visible
29 Sep -3.3 17:27:20 10° WNW 17:30:40 53° N 17:32:25 24° ENE visible
29 Sep -1.1 19:04:13 10° WNW 19:05:23 19° W 19:05:23 19° W visible
30 Sep -3.1 16:39:50 10° WNW 16:43:07 48° N 16:46:25 10° E visible
30 Sep -3.5 18:16:43 10° WNW 18:19:43 65° W 18:19:43 65° W visible
01 Oct -3.8 17:29:14 10° WNW 17:32:37 80° NNE 17:34:05 31° ESE visible
01 Oct -0.7 19:06:23 10° W 19:07:03 14° W 19:07:03 14° W visible
02 Oct -3.6 16:41:44 10° WNW 16:45:06 63° NNE 16:48:27 10° E visible
02 Oct -2.5 18:18:41 10° WNW 18:21:28 35° SW 18:21:28 35° SW visible
